Torna al catalogo

ARIANE 44L+3 DEB

LostHEO
NORAD 48421·DEBRIS·🇫🇷 France

Lanciato Jul 9, 1996 da Guiana Space Centre

Loading…

Prossimi Passaggi (prossime 24 ore)

TLE

ObsoletoSource: Space-Track

Epoca: May 17, 2024, 22:34 UTC

1 48421U 96040E   24138.94035613  .00002190  00000-0  81776-2 0  9990
2 48421   6.3899 241.6302 6951932  58.0411 351.2228  2.58292292 86297

Traccia ARIANE 44L+3 DEB in tempo reale con AllMySat

Download on the App Store